Terminal Aerodrome Forecast
Issued by NWS

Home | Current Version | Previous Version | Text Only | Print | Product List | Glossary On
Versions: 1 2 3 4 5 6 7 8 9 10 11 12 13 14 15 16 17 18 19 20 21 22 23 24 25 26 27 28 29 30 31 32 33 34 35 36 37 38 39 40 41 42 43 44 45 46 47 48 49 50
000
FTUS41 KCTP 030715 AAA
TAFAOO
TAF AMD
KAOO 030715Z 0307/0406 23002KT 6SM BR SKC
     FM030800 23002KT 4SM BR SKC
     FM030900 00000KT 2SM BR VCFG SKC
     FM031300 30003KT P6SM SCT200
     FM031800 31005KT P6SM VCSH SCT050 BKN200
     FM040100 VRB02KT 5SM BR SCT050=

USA.gov is the U.S. government's official web portal to all federal, state and local government web resources and services.